status,avgMeasuredTime,avgSpeed,extID,medianMeasuredTime,TIMESTAMP,vehicleCount,_id,REPORT_ID
OK,140,19,881,140,2014-08-01T08:00:00,2,20746936,192681
OK,140,19,881,140,2014-08-01T08:05:00,2,20747385,192681
OK,71,38,881,71,2014-08-01T08:10:00,3,20747758,192681
OK,71,38,881,71,2014-08-01T08:15:00,3,20748207,192681
OK,141,19,881,141,2014-08-01T08:20:00,0,20748656,192681
OK,141,19,881,141,2014-08-01T08:25:00,0,20749105,192681
OK,141,19,881,141,2014-08-01T08:30:00,0,20749554,192681
OK,75,36,881,75,2014-08-01T08:35:00,1,20750003,192681
OK,75,36,881,75,2014-08-01T08:40:00,1,20750452,192681
OK,102,26,881,102,2014-08-01T08:45:00,2,20750901,192681
OK,102,26,881,102,2014-08-01T08:50:00,3,20751350,192681
OK,101,27,881,101,2014-08-01T08:55:00,2,20751799,192681
OK,50,54,881,50,2014-08-01T09:00:00,1,20752248,192681
OK,104,26,881,104,2014-08-01T09:05:00,3,20752697,192681
OK,105,26,881,105,2014-08-01T09:10:00,2,20753146,192681
OK,104,26,881,104,2014-08-01T09:15:00,0,20753595,192681
OK,104,26,881,104,2014-08-01T09:20:00,0,20754044,192681
OK,148,18,881,148,2014-08-01T09:25:00,2,20754493,192681
OK,135,20,881,135,2014-08-01T09:30:00,4,20754942,192681
OK,136,20,881,136,2014-08-01T09:35:00,2,20755391,192681
OK,142,19,881,142,2014-08-01T09:40:00,1,20755840,192681
OK,142,19,881,142,2014-08-01T09:45:00,0,20756289,192681
OK,77,35,881,77,2014-08-01T09:50:00,1,20756738,192681
OK,77,35,881,77,2014-08-01T09:55:00,0,20757187,192681
OK,99,27,881,99,2014-08-01T10:00:00,2,20757636,192681
OK,99,27,881,99,2014-08-01T10:05:00,2,20758085,192681
OK,103,26,881,103,2014-08-01T10:10:00,1,20758534,192681
OK,112,24,881,112,2014-08-01T10:15:00,2,20758983,192681
OK,121,22,881,121,2014-08-01T10:20:00,1,20759432,192681
OK,121,22,881,121,2014-08-01T10:25:00,0,20759881,192681
OK,121,22,881,121,2014-08-01T10:30:00,0,20760330,192681
OK,145,18,881,145,2014-08-01T10:35:00,1,20760779,192681
OK,145,18,881,145,2014-08-01T10:40:00,1,20761228,192681
OK,145,18,881,145,2014-08-01T10:45:00,0,20761677,192681
OK,145,18,881,145,2014-08-01T10:50:00,0,20762126,192681
OK,145,18,881,145,2014-08-01T10:55:00,0,20762575,192681
OK,145,18,881,145,2014-08-01T11:00:00,0,20763024,192681
OK,145,18,881,145,2014-08-01T11:05:00,0,20763473,192681
OK,92,29,881,92,2014-08-01T11:10:00,1,20763922,192681
OK,92,29,881,92,2014-08-01T11:15:00,1,20764370,192681
OK,92,29,881,92,2014-08-01T11:20:00,0,20764819,192681
OK,49,56,881,49,2014-08-01T11:25:00,1,20765268,192681
OK,49,56,881,49,2014-08-01T11:30:00,1,20765717,192681
OK,104,26,881,104,2014-08-01T11:35:00,1,20766166,192681
OK,104,26,881,104,2014-08-01T11:40:00,1,20766615,192681
OK,104,26,881,104,2014-08-01T11:45:00,0,20767064,192681
OK,104,26,881,104,2014-08-01T11:50:00,0,20767513,192681
OK,104,26,881,104,2014-08-01T11:55:00,0,20767962,192681
OK,104,26,881,104,2014-08-01T12:00:00,0,20768411,192681
OK,104,26,881,104,2014-08-01T12:05:00,0,20768860,192681
OK,152,18,881,152,2014-08-01T12:10:00,3,20769309,192681
OK,152,18,881,152,2014-08-01T12:15:00,3,20769758,192681
OK,153,17,881,153,2014-08-01T12:20:00,0,20770207,192681
OK,146,18,881,146,2014-08-01T12:25:00,1,20770656,192681
OK,178,15,881,178,2014-08-01T12:30:00,2,20771105,192681
OK,211,13,881,211,2014-08-01T12:35:00,1,20771554,192681
OK,211,13,881,211,2014-08-01T12:40:00,0,20772003,192681
OK,211,13,881,211,2014-08-01T12:45:00,0,20772452,192681
OK,123,22,881,123,2014-08-01T12:50:00,2,20772901,192681
OK,123,22,881,123,2014-08-01T12:55:00,2,20773350,192681
OK,97,28,881,97,2014-08-01T13:00:00,1,20773799,192681
OK,147,18,881,147,2014-08-01T13:05:00,1,20774248,192681
OK,142,19,881,142,2014-08-01T13:10:00,2,20774697,192681
OK,143,19,881,143,2014-08-01T13:15:00,2,20775146,192681
OK,150,18,881,150,2014-08-01T13:20:00,1,20775595,192681
OK,150,18,881,150,2014-08-01T13:25:00,0,20776044,192681
OK,83,33,881,83,2014-08-01T13:30:00,2,20776493,192681
OK,83,33,881,83,2014-08-01T13:35:00,2,20776942,192681
OK,83,33,881,83,2014-08-01T13:40:00,0,20777391,192681
OK,83,33,881,83,2014-08-01T13:45:00,0,20777840,192681
OK,83,33,881,83,2014-08-01T13:50:00,0,20778289,192681
OK,120,22,881,120,2014-08-01T13:55:00,1,20778738,192681
OK,120,22,881,120,2014-08-01T14:00:00,1,20779187,192681
OK,110,24,881,110,2014-08-01T14:05:00,1,20779636,192681
OK,110,24,881,110,2014-08-01T14:10:00,1,20780085,192681
OK,110,24,881,110,2014-08-01T14:15:00,0,20780534,192681
OK,110,24,881,110,2014-08-01T14:20:00,0,20780983,192681
OK,97,28,881,97,2014-08-01T14:25:00,1,20781432,192681
OK,97,28,881,97,2014-08-01T14:30:00,1,20781881,192681
OK,52,52,881,52,2014-08-01T14:35:00,1,20782330,192681
OK,52,52,881,52,2014-08-01T14:40:00,0,20782779,192681
OK,52,52,881,52,2014-08-01T14:45:00,0,20783228,192681
OK,107,25,881,107,2014-08-01T14:50:00,2,20783677,192681
OK,107,25,881,107,2014-08-01T14:55:00,2,20784126,192681
OK,107,25,881,107,2014-08-01T15:00:00,0,20784575,192681
OK,85,32,881,85,2014-08-01T15:05:00,2,20785024,192681
OK,96,28,881,96,2014-08-01T15:10:00,1,20785473,192681
OK,139,19,881,139,2014-08-01T15:15:00,1,20785922,192681
OK,139,19,881,139,2014-08-01T15:20:00,0,20786371,192681
OK,139,19,881,139,2014-08-01T15:25:00,0,20786820,192681
OK,139,19,881,139,2014-08-01T15:30:00,0,20787269,192681
OK,139,19,881,139,2014-08-01T15:35:00,0,20787718,192681
OK,139,19,881,139,2014-08-01T15:40:00,0,20788167,192681
OK,139,19,881,139,2014-08-01T15:45:00,0,20788616,192681
OK,139,19,881,139,2014-08-01T15:50:00,0,20789065,192681
OK,139,19,881,139,2014-08-01T15:55:00,0,20789514,192681
OK,132,20,881,132,2014-08-01T16:00:00,2,20789963,192681
OK,125,21,881,125,2014-08-01T16:05:00,3,20790412,192681
OK,125,21,881,125,2014-08-01T16:10:00,1,20790861,192681
OK,112,24,881,112,2014-08-01T16:15:00,3,20791310,192681
OK,112,24,881,112,2014-08-01T16:20:00,3,20791759,192681
OK,117,23,881,117,2014-08-01T16:25:00,0,20792208,192681
OK,117,23,881,117,2014-08-01T16:30:00,0,20792657,192681
OK,117,23,881,117,2014-08-01T16:35:00,0,20793106,192681
OK,117,23,881,117,2014-08-01T16:40:00,0,20793555,192681
OK,117,23,881,117,2014-08-01T16:45:00,0,20794004,192681
OK,117,23,881,117,2014-08-01T16:50:00,0,20794453,192681
OK,117,23,881,117,2014-08-01T16:55:00,0,20794902,192681
OK,117,23,881,117,2014-08-01T17:00:00,0,20795351,192681
OK,117,23,881,117,2014-08-01T17:05:00,0,20795800,192681
OK,117,23,881,117,2014-08-01T17:10:00,0,20796249,192681
OK,155,17,881,155,2014-08-01T17:15:00,1,20796698,192681
OK,155,17,881,155,2014-08-01T17:20:00,1,20797147,192681
OK,155,17,881,155,2014-08-01T17:25:00,0,20797596,192681
OK,155,17,881,155,2014-08-01T17:30:00,0,20798045,192681
OK,155,17,881,155,2014-08-01T17:35:00,0,20798494,192681
OK,155,17,881,155,2014-08-01T17:40:00,0,20798943,192681
OK,155,17,881,155,2014-08-01T17:45:00,0,20799392,192681
OK,155,17,881,155,2014-08-01T17:50:00,0,20799841,192681
OK,155,17,881,155,2014-08-01T17:55:00,0,20800290,192681
OK,155,17,881,155,2014-08-01T18:00:00,0,20800739,192681
OK,155,17,881,155,2014-08-01T18:05:00,0,20801188,192681
OK,155,17,881,155,2014-08-01T18:10:00,0,20801637,192681
OK,155,17,881,155,2014-08-01T18:15:00,0,20802086,192681
OK,56,49,881,56,2014-08-01T18:20:00,1,20802535,192681
OK,56,49,881,56,2014-08-01T18:25:00,0,20802984,192681
OK,56,49,881,56,2014-08-01T18:30:00,0,20803433,192681
OK,99,27,881,99,2014-08-01T18:35:00,2,20803882,192681
OK,88,31,881,88,2014-08-01T18:40:00,1,20804331,192681
OK,114,24,881,114,2014-08-01T18:45:00,1,20804780,192681
OK,114,24,881,114,2014-08-01T18:50:00,0,20805229,192681
OK,114,24,881,114,2014-08-01T18:55:00,0,20805678,192681
OK,114,24,881,114,2014-08-01T19:00:00,0,20806127,192681
OK,114,24,881,114,2014-08-01T19:05:00,0,20806576,192681
OK,114,24,881,114,2014-08-01T19:10:00,0,20807025,192681
OK,114,24,881,114,2014-08-01T19:15:00,0,20807474,192681
OK,114,24,881,114,2014-08-01T19:20:00,0,20807923,192681
OK,82,33,881,82,2014-08-01T19:25:00,1,20808372,192681
OK,69,39,881,69,2014-08-01T19:30:00,2,20808821,192681
OK,108,25,881,108,2014-08-01T19:35:00,1,20809270,192681
OK,108,25,881,108,2014-08-01T19:40:00,1,20809719,192681
OK,108,25,881,108,2014-08-01T19:45:00,0,20810168,192681
OK,108,25,881,108,2014-08-01T19:50:00,0,20810617,192681
OK,108,25,881,108,2014-08-01T19:55:00,0,20811066,192681
OK,108,25,881,108,2014-08-01T22:00:00,0,20816795,192681
OK,108,25,881,108,2014-08-01T22:05:00,0,20817244,192681
OK,108,25,881,108,2014-08-02T00:00:00,0,20823234,192681
OK,108,25,881,108,2014-08-02T00:05:00,0,20823683,192681
OK,108,25,881,108,2014-08-02T00:10:00,0,20824132,192681
OK,108,25,881,108,2014-08-02T00:15:00,0,20824581,192681
OK,108,25,881,108,2014-08-02T00:20:00,0,20825030,192681
OK,108,25,881,108,2014-08-02T00:25:00,0,20825479,192681
OK,108,25,881,108,2014-08-02T00:30:00,0,20825928,192681
OK,108,25,881,108,2014-08-02T00:35:00,0,20826377,192681
OK,108,25,881,108,2014-08-02T00:40:00,0,20826826,192681
OK,108,25,881,108,2014-08-02T00:45:00,0,20827275,192681
OK,108,25,881,108,2014-08-02T00:50:00,0,20827724,192681
OK,108,25,881,108,2014-08-02T00:55:00,0,20828173,192681
OK,108,25,881,108,2014-08-02T01:00:00,0,20828622,192681
OK,108,25,881,108,2014-08-02T01:05:00,0,20829071,192681
OK,108,25,881,108,2014-08-02T01:10:00,0,20829520,192681
OK,108,25,881,108,2014-08-02T01:15:00,0,20829969,192681
OK,108,25,881,108,2014-08-02T01:20:00,0,20830418,192681
OK,108,25,881,108,2014-08-02T01:25:00,0,20830867,192681
OK,108,25,881,108,2014-08-02T01:30:00,0,20831316,192681
OK,108,25,881,108,2014-08-02T01:35:00,0,20831765,192681
OK,108,25,881,108,2014-08-02T01:40:00,0,20832214,192681
OK,108,25,881,108,2014-08-02T01:45:00,0,20832663,192681
OK,108,25,881,108,2014-08-02T01:50:00,0,20833112,192681
OK,108,25,881,108,2014-08-02T01:55:00,0,20833561,192681
OK,108,25,881,108,2014-08-02T02:00:00,0,20834010,192681
OK,108,25,881,108,2014-08-02T02:05:00,0,20834459,192681
OK,108,25,881,108,2014-08-02T02:10:00,0,20834908,192681
OK,108,25,881,108,2014-08-02T02:15:00,0,20835357,192681
OK,108,25,881,108,2014-08-02T02:20:00,0,20835806,192681
OK,108,25,881,108,2014-08-02T02:25:00,0,20836255,192681
OK,108,25,881,108,2014-08-02T02:30:00,0,20836704,192681
OK,108,25,881,108,2014-08-02T02:35:00,0,20837153,192681
OK,108,25,881,108,2014-08-02T02:40:00,0,20837602,192681
OK,108,25,881,108,2014-08-02T02:45:00,0,20838051,192681
OK,108,25,881,108,2014-08-02T02:50:00,0,20838500,192681
OK,108,25,881,108,2014-08-02T02:55:00,0,20838949,192681
OK,108,25,881,108,2014-08-02T03:00:00,0,20839398,192681
OK,108,25,881,108,2014-08-02T03:05:00,0,20839847,192681
OK,108,25,881,108,2014-08-02T03:10:00,0,20840296,192681
OK,108,25,881,108,2014-08-02T03:15:00,0,20840745,192681
OK,108,25,881,108,2014-08-02T03:20:00,0,20841194,192681
OK,108,25,881,108,2014-08-02T03:25:00,0,20841643,192681
OK,108,25,881,108,2014-08-02T03:30:00,0,20842092,192681
OK,108,25,881,108,2014-08-02T03:35:00,0,20842541,192681
OK,108,25,881,108,2014-08-02T03:40:00,0,20842990,192681
OK,108,25,881,108,2014-08-02T03:45:00,0,20843439,192681
OK,108,25,881,108,2014-08-02T03:50:00,0,20843888,192681
OK,108,25,881,108,2014-08-02T03:55:00,0,20844337,192681
OK,103,26,881,103,2014-08-02T06:00:00,2,20851791,192681
OK,103,26,881,103,2014-08-02T06:05:00,2,20852240,192681
OK,103,26,881,103,2014-08-02T06:10:00,0,20852689,192681
OK,104,26,881,104,2014-08-02T06:15:00,1,20853138,192681
OK,104,26,881,104,2014-08-02T06:20:00,0,20853587,192681
OK,104,26,881,104,2014-08-02T06:25:00,0,20854036,192681
OK,104,26,881,104,2014-08-02T06:30:00,0,20854485,192681
OK,139,19,881,139,2014-08-02T06:35:00,1,20854934,192681
OK,139,19,881,139,2014-08-02T06:40:00,0,20855383,192681
OK,139,19,881,139,2014-08-02T06:45:00,0,20855832,192681
OK,139,19,881,139,2014-08-02T06:50:00,0,20856281,192681
OK,139,19,881,139,2014-08-02T06:55:00,0,20856730,192681
OK,139,19,881,139,2014-08-02T07:00:00,0,20857179,192681
OK,139,19,881,139,2014-08-02T07:05:00,0,20857628,192681
OK,139,19,881,139,2014-08-02T07:10:00,0,20858077,192681
OK,139,19,881,139,2014-08-02T07:15:00,0,20858526,192681
OK,139,19,881,139,2014-08-02T07:20:00,0,20858975,192681
OK,139,19,881,139,2014-08-02T07:25:00,0,20859424,192681
OK,139,19,881,139,2014-08-02T07:30:00,0,20859873,192681
OK,139,19,881,139,2014-08-02T07:35:00,0,20860322,192681
OK,139,19,881,139,2014-08-02T07:40:00,0,20860771,192681
OK,51,53,881,51,2014-08-02T07:45:00,1,20861220,192681
OK,51,53,881,51,2014-08-02T07:50:00,1,20861669,192681
OK,51,53,881,51,2014-08-02T07:55:00,0,20862118,192681
OK,51,53,881,51,2014-08-02T08:00:00,0,20862567,192681
OK,51,53,881,51,2014-08-02T08:05:00,0,20863016,192681
OK,51,53,881,51,2014-08-02T08:10:00,0,20863465,192681
OK,51,53,881,51,2014-08-02T08:15:00,0,20863914,192681
OK,52,52,881,52,2014-08-02T08:20:00,1,20864363,192681
OK,52,52,881,52,2014-08-02T08:25:00,0,20864812,192681
OK,52,52,881,52,2014-08-02T08:30:00,0,20865261,192681
OK,97,28,881,97,2014-08-02T08:35:00,0,20865710,192681
OK,58,47,881,58,2014-08-02T08:40:00,1,20866159,192681
OK,58,47,881,58,2014-08-02T08:45:00,0,20866608,192681
OK,145,18,881,145,2014-08-02T08:50:00,1,20867057,192681
OK,145,18,881,145,2014-08-02T08:55:00,1,20867506,192681
OK,145,18,881,145,2014-08-02T09:00:00,0,20867955,192681
OK,145,18,881,145,2014-08-02T09:05:00,0,20868404,192681
OK,145,18,881,145,2014-08-02T09:10:00,0,20868853,192681
OK,81,33,881,81,2014-08-02T09:15:00,1,20869302,192681
OK,81,33,881,81,2014-08-02T09:20:00,3,20869751,192681
OK,48,57,881,48,2014-08-02T09:25:00,1,20870200,192681
OK,107,25,881,107,2014-08-02T09:30:00,2,20870649,192681
OK,66,41,881,66,2014-08-02T09:35:00,3,20871098,192681
OK,83,33,881,83,2014-08-02T09:40:00,2,20871547,192681
OK,100,27,881,100,2014-08-02T09:45:00,1,20871996,192681
OK,100,27,881,100,2014-08-02T09:50:00,0,20872445,192681
OK,100,27,881,100,2014-08-02T09:55:00,0,20872894,192681
OK,136,20,881,136,2014-08-02T10:00:00,1,20873343,192681
OK,136,20,881,136,2014-08-02T10:05:00,1,20873792,192681
OK,67,40,881,67,2014-08-02T10:10:00,1,20874241,192681
OK,67,40,881,67,2014-08-02T10:15:00,1,20874690,192681
OK,114,24,881,114,2014-08-02T10:20:00,2,20875139,192681
OK,104,26,881,104,2014-08-02T10:25:00,1,20875588,192681
OK,138,19,881,138,2014-08-02T10:30:00,1,20876037,192681
OK,138,19,881,138,2014-08-02T10:35:00,1,20876486,192681
OK,138,19,881,138,2014-08-02T10:40:00,0,20876935,192681
OK,100,27,881,100,2014-08-02T10:45:00,1,20877384,192681
OK,101,27,881,101,2014-08-02T10:50:00,1,20877833,192681
OK,101,27,881,101,2014-08-02T10:55:00,0,20878282,192681
OK,101,27,881,101,2014-08-02T11:00:00,0,20878731,192681
OK,116,23,881,116,2014-08-02T11:05:00,1,20879180,192681
OK,116,23,881,116,2014-08-02T11:10:00,1,20879629,192681
OK,100,27,881,100,2014-08-02T11:15:00,2,20880078,192681
OK,100,27,881,100,2014-08-02T11:20:00,0,20880527,192681
OK,100,27,881,100,2014-08-02T11:25:00,0,20880976,192681
OK,100,27,881,100,2014-08-02T11:30:00,0,20881425,192681
OK,106,25,881,106,2014-08-02T11:35:00,1,20881874,192681
OK,106,25,881,106,2014-08-02T11:40:00,0,20882323,192681
OK,106,25,881,106,2014-08-02T11:45:00,0,20882772,192681
OK,116,23,881,116,2014-08-02T11:50:00,1,20883221,192681
OK,116,23,881,116,2014-08-02T11:55:00,0,20883670,192681
OK,86,31,881,86,2014-08-02T12:00:00,1,20884119,192681
OK,75,36,881,75,2014-08-02T12:05:00,2,20884568,192681
OK,101,27,881,101,2014-08-02T12:10:00,2,20885017,192681
OK,137,20,881,137,2014-08-02T12:15:00,0,20885466,192681
OK,127,21,881,127,2014-08-02T12:20:00,1,20885915,192681
OK,110,24,881,110,2014-08-02T12:25:00,2,20886364,192681
OK,93,29,881,93,2014-08-02T12:30:00,1,20886813,192681
OK,93,29,881,93,2014-08-02T12:35:00,0,20887262,192681
OK,153,17,881,153,2014-08-02T12:40:00,1,20887711,192681
OK,153,17,881,153,2014-08-02T12:45:00,1,20888160,192681
OK,117,23,881,117,2014-08-02T12:50:00,1,20888609,192681
OK,130,21,881,130,2014-08-02T12:55:00,2,20889058,192681
OK,148,18,881,148,2014-08-02T13:00:00,2,20889507,192681
OK,157,17,881,157,2014-08-02T13:05:00,2,20889956,192681
OK,153,17,881,153,2014-08-02T13:10:00,2,20890405,192681
OK,146,18,881,146,2014-08-02T13:15:00,1,20890854,192681
OK,106,25,881,106,2014-08-02T13:20:00,1,20891303,192681
OK,114,24,881,114,2014-08-02T13:25:00,2,20891752,192681
OK,123,22,881,123,2014-08-02T13:30:00,1,20892201,192681
OK,123,22,881,123,2014-08-02T13:35:00,0,20892650,192681
OK,123,22,881,123,2014-08-02T13:40:00,0,20893099,192681
OK,132,20,881,132,2014-08-02T13:45:00,1,20893548,192681
OK,139,19,881,139,2014-08-02T13:50:00,2,20893997,192681
OK,147,18,881,147,2014-08-02T13:55:00,1,20894446,192681
OK,147,18,881,147,2014-08-02T14:00:00,0,20894895,192681
OK,147,18,881,147,2014-08-02T14:05:00,0,20895344,192681
OK,92,29,881,92,2014-08-02T14:10:00,1,20895793,192681
OK,79,34,881,79,2014-08-02T14:15:00,2,20896242,192681
OK,138,19,881,138,2014-08-02T14:20:00,3,20896691,192681
OK,139,19,881,139,2014-08-02T14:25:00,2,20897140,192681
OK,118,23,881,118,2014-08-02T14:30:00,1,20897589,192681
OK,118,23,881,118,2014-08-02T14:35:00,1,20898038,192681
OK,118,23,881,118,2014-08-02T14:40:00,0,20898487,192681
OK,124,22,881,124,2014-08-02T14:45:00,1,20898936,192681
OK,124,22,881,124,2014-08-02T14:50:00,1,20899385,192681
OK,124,22,881,124,2014-08-02T14:55:00,0,20899834,192681
OK,159,17,881,159,2014-08-02T15:00:00,1,20900283,192681
OK,159,17,881,159,2014-08-02T15:05:00,1,20900732,192681
OK,108,25,881,108,2014-08-02T15:10:00,1,20901181,192681
OK,108,25,881,108,2014-08-02T15:15:00,1,20901630,192681
OK,108,25,881,108,2014-08-02T15:20:00,0,20902079,192681
OK,176,15,881,176,2014-08-02T15:25:00,2,20902528,192681
OK,188,14,881,188,2014-08-02T15:30:00,3,20902977,192681
OK,141,19,881,141,2014-08-02T15:35:00,2,20903426,192681
OK,91,30,881,91,2014-08-02T15:40:00,1,20903875,192681
OK,111,24,881,111,2014-08-02T15:45:00,1,20904324,192681
OK,120,22,881,120,2014-08-02T15:50:00,2,20904773,192681
OK,129,21,881,129,2014-08-02T15:55:00,0,20905222,192681
OK,129,21,881,129,2014-08-02T16:00:00,0,20905671,192681
OK,75,36,881,75,2014-08-02T16:05:00,1,20906120,192681
OK,75,36,881,75,2014-08-02T16:10:00,1,20906569,192681
OK,75,36,881,75,2014-08-02T16:15:00,0,20907018,192681
OK,75,36,881,75,2014-08-02T16:20:00,0,20907467,192681
OK,75,36,881,75,2014-08-02T16:25:00,0,20907916,192681
OK,75,36,881,75,2014-08-02T16:30:00,0,20908365,192681
OK,75,36,881,75,2014-08-02T16:35:00,0,20908814,192681
OK,133,20,881,133,2014-08-02T16:40:00,1,20909263,192681
OK,133,20,881,133,2014-08-02T16:45:00,1,20909712,192681
OK,133,20,881,133,2014-08-02T16:50:00,0,20910161,192681
OK,133,20,881,133,2014-08-02T16:55:00,0,20910610,192681
OK,133,20,881,133,2014-08-02T17:00:00,0,20911059,192681
OK,90,30,881,90,2014-08-02T17:05:00,2,20911508,192681
OK,90,30,881,90,2014-08-02T17:10:00,0,20911957,192681
OK,90,30,881,90,2014-08-02T17:15:00,0,20912406,192681
OK,90,30,881,90,2014-08-02T17:20:00,0,20912855,192681
OK,105,26,881,105,2014-08-02T17:25:00,1,20913304,192681
OK,94,29,881,94,2014-08-02T17:30:00,2,20913753,192681
OK,84,32,881,84,2014-08-02T17:35:00,1,20914202,192681
OK,84,32,881,84,2014-08-02T17:40:00,0,20914651,192681
OK,84,32,881,84,2014-08-02T17:45:00,0,20915100,192681
OK,34,80,881,34,2014-08-02T17:50:00,1,20915549,192681
OK,34,80,881,34,2014-08-02T17:55:00,1,20915998,192681
OK,72,38,881,72,2014-08-02T18:00:00,1,20916447,192681
OK,72,38,881,72,2014-08-02T18:05:00,0,20916896,192681
OK,72,38,881,72,2014-08-02T18:10:00,0,20917345,192681
OK,72,38,881,72,2014-08-02T18:15:00,0,20917794,192681
OK,72,38,881,72,2014-08-02T18:20:00,0,20918243,192681
OK,72,38,881,72,2014-08-02T18:25:00,0,20918692,192681
OK,72,38,881,72,2014-08-02T18:30:00,0,20919141,192681
OK,72,38,881,72,2014-08-02T18:35:00,0,20919590,192681
OK,91,30,881,91,2014-08-02T18:40:00,2,20920039,192681
OK,79,34,881,79,2014-08-02T18:45:00,1,20920488,192681
OK,79,34,881,79,2014-08-02T18:50:00,0,20920937,192681
OK,79,34,881,79,2014-08-02T18:55:00,0,20921386,192681
OK,102,26,881,102,2014-08-02T19:00:00,1,20921835,192681
OK,102,26,881,102,2014-08-02T19:05:00,0,20922284,192681
OK,102,26,881,102,2014-08-02T19:10:00,0,20922733,192681
OK,110,24,881,110,2014-08-02T19:15:00,2,20923182,192681
OK,110,24,881,110,2014-08-02T19:20:00,0,20923631,192681
OK,110,24,881,110,2014-08-02T19:25:00,0,20924080,192681
OK,110,24,881,110,2014-08-02T19:30:00,0,20924529,192681
OK,110,24,881,110,2014-08-02T19:35:00,0,20924978,192681
OK,110,24,881,110,2014-08-02T19:40:00,0,20925427,192681
OK,110,24,881,110,2014-08-02T19:45:00,0,20925876,192681
OK,110,24,881,110,2014-08-02T19:50:00,0,20926325,192681
OK,110,24,881,110,2014-08-02T19:55:00,0,20926774,192681
OK,110,24,881,110,2014-08-02T20:00:00,0,20927223,192681
OK,110,24,881,110,2014-08-02T20:05:00,0,20927672,192681
OK,110,24,881,110,2014-08-02T20:10:00,0,20928121,192681
OK,110,24,881,110,2014-08-02T20:15:00,0,20928570,192681
OK,110,24,881,110,2014-08-02T20:20:00,0,20929019,192681
OK,142,19,881,142,2014-08-02T20:25:00,1,20929468,192681
OK,142,19,881,142,2014-08-02T20:30:00,0,20929917,192681
OK,142,19,881,142,2014-08-02T20:35:00,0,20930366,192681
OK,142,19,881,142,2014-08-02T20:40:00,0,20930815,192681
OK,142,19,881,142,2014-08-02T20:45:00,0,20931264,192681
OK,142,19,881,142,2014-08-02T20:50:00,0,20931713,192681
OK,142,19,881,142,2014-08-02T20:55:00,0,20932162,192681
OK,142,19,881,142,2014-08-02T21:00:00,0,20932611,192681
OK,142,19,881,142,2014-08-02T21:05:00,0,20933060,192681
OK,142,19,881,142,2014-08-02T21:10:00,0,20933509,192681
OK,142,19,881,142,2014-08-02T21:15:00,0,20933958,192681
OK,142,19,881,142,2014-08-02T21:20:00,0,20934407,192681
OK,72,38,881,72,2014-08-02T21:25:00,1,20934856,192681
OK,143,19,881,143,2014-08-02T21:30:00,1,20935305,192681
OK,143,19,881,143,2014-08-02T21:35:00,0,20935754,192681
OK,143,19,881,143,2014-08-02T21:40:00,0,20936203,192681
OK,110,24,881,110,2014-08-02T21:45:00,0,20936652,192681
OK,110,24,881,110,2014-08-02T21:50:00,0,20937101,192681
OK,110,24,881,110,2014-08-02T21:55:00,0,20937550,192681
OK,110,24,881,110,2014-08-02T22:00:00,0,20937999,192681
OK,110,24,881,110,2014-08-02T22:05:00,0,20938448,192681
OK,110,24,881,110,2014-08-02T22:10:00,0,20938897,192681
OK,110,24,881,110,2014-08-02T22:15:00,0,20939346,192681
OK,110,24,881,110,2014-08-02T22:20:00,0,20939795,192681
OK,110,24,881,110,2014-08-02T22:25:00,0,20940244,192681
OK,110,24,881,110,2014-08-02T22:30:00,0,20940693,192681
OK,86,31,881,86,2014-08-02T22:35:00,0,20941142,192681
OK,86,31,881,86,2014-08-02T22:40:00,0,20941591,192681
OK,86,31,881,86,2014-08-02T22:45:00,0,20942040,192681
OK,86,31,881,86,2014-08-02T22:50:00,0,20942489,192681
OK,86,31,881,86,2014-08-02T22:55:00,0,20942938,192681
OK,86,31,881,86,2014-08-02T23:00:00,0,20943387,192681
OK,86,31,881,86,2014-08-02T23:10:00,0,20943836,192681
OK,86,31,881,86,2014-08-02T23:15:00,0,20944285,192681
OK,86,31,881,86,2014-08-02T23:20:00,0,20944734,192681
OK,86,31,881,86,2014-08-02T23:25:00,0,20945183,192681
OK,86,31,881,86,2014-08-02T23:30:00,0,20945632,192681
OK,86,31,881,86,2014-08-02T23:35:00,0,20946081,192681
OK,86,31,881,86,2014-08-02T23:40:00,0,20946530,192681
OK,86,31,881,86,2014-08-02T23:45:00,0,20946979,192681
OK,86,31,881,86,2014-08-02T23:50:00,0,20947428,192681
OK,86,31,881,86,2014-08-02T23:55:00,0,20947877,192681
OK,86,31,881,86,2014-08-03T00:00:00,0,20948326,192681
OK,86,31,881,86,2014-08-03T00:05:00,0,20948775,192681
OK,86,31,881,86,2014-08-03T00:10:00,0,20949223,192681
OK,86,31,881,86,2014-08-03T00:15:00,0,20949672,192681
OK,86,31,881,86,2014-08-03T00:20:00,0,20950121,192681
OK,86,31,881,86,2014-08-03T00:25:00,0,20950570,192681
OK,86,31,881,86,2014-08-03T00:30:00,0,20951019,192681
OK,86,31,881,86,2014-08-03T00:35:00,0,20951468,192681
OK,86,31,881,86,2014-08-03T00:40:00,0,20951917,192681
OK,86,31,881,86,2014-08-03T00:45:00,0,20952366,192681
OK,86,31,881,86,2014-08-03T00:50:00,0,20952815,192681
OK,86,31,881,86,2014-08-03T00:55:00,0,20953264,192681
OK,86,31,881,86,2014-08-03T01:00:00,0,20953713,192681
OK,86,31,881,86,2014-08-03T01:05:00,0,20954162,192681